DWGW3121 Weather Reports


time (UTC)temp
C
wind
direction
speed
KPH
gust
KPH
rain 1hr
cm
rain 24hr
cm
rain mn
cm
humidity
%
barometer
mb
20260504070103 6 97 1.6 1.6 0.00 0.00 0.00 73 1010.9
20260504050602 5 98 3.2 4.8 0.00 0.00 0.00 72 1011.6
20260504045602 5 98 3.2 4.8 0.00 0.00 0.00 73 1011.7
20260504044603 5 98 1.6 4.8 0.00 0.00 0.00 71 1011.7
20260504043602 5 98 3.2 4.8 0.00 0.00 0.00 70 1011.6
20260504043102 5 98 4.8 8.0 0.00 0.00 0.00 70 1011.7
20260504042602 5 101 3.2 4.8 0.00 0.00 0.00 69 1011.6
20260504042102 5 101 4.8 8.0 0.00 0.00 0.00 69 1011.7
20260504041102 5 136 3.2 4.8 0.00 0.00 0.00 68 1011.7
20260504040603 5 169 3.2 4.8 0.00 0.00 0.00 68 1011.6
20260504035602 5 274 3.2 4.8 0.00 0.00 0.00 68 1011.5
20260504035102 5 274 3.2 4.8 0.00 0.00 0.00 69 1011.5
20260504034603 5 274 3.2 4.8 0.00 0.00 0.00 69 1011.4
20260504034102 5 274 1.6 3.2 0.00 0.00 0.00 69 1011.4
20260504033602 5 274 1.6 4.8 0.00 0.00 0.00 69 1011.4
20260504032602 5 274 1.6 3.2 0.00 0.00 0.00 67 1011.4
20260504032103 5 274 3.2 4.8 0.00 0.00 0.00 66 1011.3
20260504031603 5 274 3.2 4.8 0.00 0.00 0.00 66 1011.4
20260504031102 5 274 1.6 4.8 0.00 0.00 0.00 66 1011.3
20260504030602 5 274 3.2 4.8 0.00 0.00 0.00 65 1011.3
20260504030104 6 274 1.6 3.2 0.00 0.00 0.00 65 1011.3
20260504025603 6 274 3.2 3.2 0.00 0.00 0.00 64 1011.2
20260504025102 6 274 1.6 4.8 0.00 0.00 0.00 63 1011.1
20260504024602 6 274 3.2 4.8 0.00 0.00 0.00 62 1011.1
20260504024102 6 274 3.2 4.8 0.00 0.00 0.00 59 1011.1
20260504023602 6 274 1.6 3.2 0.00 0.00 0.00 56 1011.2
20260504023102 7 274 1.6 1.6 0.00 0.00 0.00 55 1011.2
20260504022603 7 274 0.0 1.6 0.00 0.00 0.00 55 1011.2
20260504022102 7 274 1.6 1.6 0.00 0.00 0.00 55 1011.3
20260504021103 7 274 0.0 1.6 0.00 0.00 0.00 53 1011.3
20260504015102 8 274 0.0 0.0 0.00 0.00 0.00 50 1011.4
20260504014102 8 274 0.0 0.0 0.00 0.00 0.00 49 1011.2
20260504013603 8 274 0.0 0.0 0.00 0.00 0.00 49 1011.2
20260504012602 8 274 0.0 0.0 0.00 0.00 0.00 47 1011.1
20260504012102 9 274 0.0 0.0 0.00 0.00 0.00 47 1011.0
20260504011602 9 274 0.0 0.0 0.00 0.00 0.00 47 1010.9
20260504011102 9 274 0.0 0.0 0.00 0.00 0.00 44 1010.9
20260504010602 10 274 0.0 0.0 0.00 0.00 0.00 44 1010.8
20260504005602 10 274 0.0 0.0 0.00 0.00 0.00 42 1010.7
20260504005102 10 274 0.0 0.0 0.00 0.00 0.00 42 1010.7
20260504004603 10 274 0.0 0.0 0.00 0.00 0.00 42 1010.7
20260504003602 10 274 0.0 3.2 0.00 0.00 0.00 42 1010.6
20260504003102 10 274 1.6 3.2 0.00 0.00 0.00 41 1010.5
20260504001602 11 274 3.2 4.8 0.00 0.00 0.00 41 1010.4
20260504000603 11 274 1.6 4.8 0.00 0.00 0.00 40 1010.3
20260503235103 11 278 3.2 9.7 0.00 0.00 0.00 38 1010.1
20260503234602 11 290 3.2 4.8 0.00 0.00 0.00 38 1010.0
20260503234102 11 290 3.2 8.0 0.00 0.00 0.00 37 1010.0
20260503232602 11 296 4.8 11.3 0.00 0.00 0.00 35 1009.9
20260503232103 12 300 4.8 12.9 0.00 0.00 0.00 35 1009.7
20260503231603 12 283 6.4 12.9 0.00 0.00 0.00 35 1009.6
20260503231104 12 291 4.8 11.3 0.00 0.00 0.00 35 1009.6
20260503230603 12 14 4.8 11.3 0.00 0.00 0.00 35 1009.5
20260503230103 12 300 4.8 12.9 0.00 0.00 0.00 35 1009.6
20260503224602 12 286 9.7 19.3 0.00 0.00 0.00 33 1009.5
20260503224102 12 282 4.8 14.5 0.00 0.00 0.00 33 1009.5
20260503223603 12 297 8.0 16.1 0.00 0.00 0.00 33 1009.4
20260503223102 12 318 3.2 8.0 0.00 0.00 0.00 32 1009.3
20260503222602 12 300 9.7 14.5 0.00 0.00 0.00 31 1009.3
20260503222102 13 284 6.4 14.5 0.00 0.00 0.00 30 1009.4
20260503221102 13 336 6.4 16.1 0.00 0.00 0.00 30 1009.3
20260503220602 13 267 11.3 19.3 0.00 0.00 0.00 30 1009.3
20260503215602 13 286 8.0 19.3 0.00 0.00 0.00 30 1009.4
20260503215102 13 273 9.7 22.5 0.00 0.00 0.00 32 1009.4
20260503214602 13 298 9.7 19.3 0.00 0.00 0.00 31 1009.3
20260503214103 13 336 6.4 19.3 0.00 0.00 0.00 30 1009.3
20260503213603 13 302 6.4 16.1 0.00 0.00 0.00 32 1009.3
20260503213102 13 332 9.7 19.3 0.00 0.00 0.00 32 1009.2
20260503212602 13 280 8.0 12.9 0.00 0.00 0.00 32 1009.2
20260503211603 13 336 8.0 19.3 0.00 0.00 0.00 32 1009.2
20260503211103 13 287 9.7 19.3 0.00 0.00 0.00 33 1009.1
20260503210603 13 288 8.0 19.3 0.00 0.00 0.00 33 1009.2
20260503205602 13 289 8.0 19.3 0.00 0.00 0.00 33 1009.1
20260503205102 13 281 6.4 12.9 0.00 0.00 0.00 35 1009.2
20260503204602 13 303 8.0 19.3 0.00 0.00 0.00 35 1009.3
20260503203603 13 278 4.8 14.5 0.00 0.00 0.00 37 1009.2
20260503203102 12 4 8.0 16.1 0.00 0.00 0.00 37 1009.4
20260503202603 12 332 4.8 14.5 0.00 0.00 0.00 37 1009.4
20260503202102 12 290 6.4 24.1 0.00 0.00 0.00 38 1009.5
20260503201602 12 342 8.0 19.3 0.00 0.00 0.00 37 1009.6
20260503201102 12 309 9.7 14.5 0.00 0.00 0.00 38 1009.7
20260503200603 12 290 9.7 19.3 0.00 0.00 0.00 38 1009.7
20260503195103 11 302 12.9 19.3 0.00 0.00 0.00 37 1009.9
20260503194602 11 333 11.3 19.3 0.00 0.00 0.00 39 1010.0
20260503194102 11 310 8.0 16.1 0.00 0.00 0.00 39 1010.0
20260503193603 11 310 9.7 16.1 0.00 0.00 0.00 39 1010.1
20260503193103 11 283 11.3 22.5 0.00 0.00 0.00 39 1010.2
20260503192102 11 338 8.0 16.1 0.00 0.00 0.00 41 1010.2
20260503191602 11 282 8.0 14.5 0.00 0.00 0.00 44 1010.2
20260503191103 11 280 6.4 19.3 0.00 0.00 0.00 47 1010.3
20260503190602 10 352 6.4 14.5 0.00 0.00 0.00 42 1010.3
20260503190103 10 13 3.2 12.9 0.00 0.00 0.00 44 1010.4
20260503185103 10 289 8.0 14.5 0.00 0.00 0.00 43 1010.6
20260503184602 10 329 8.0 24.1 0.00 0.00 0.00 43 1010.7
20260503184102 10 322 11.3 24.1 0.00 0.00 0.00 43 1010.7
20260503183102 10 299 8.0 16.1 0.00 0.00 0.00 44 1010.7
20260503182602 10 286 8.0 14.5 0.00 0.00 0.00 45 1010.7
20260503182102 10 273 8.0 14.5 0.00 0.00 0.00 45 1010.7
20260503181602 10 304 8.0 16.1 0.00 0.00 0.00 44 1010.7
20260503181106 10 4 4.8 14.5 0.00 0.00 0.00 42 1010.7
20260503180602 10 344 4.8 19.3 0.00 0.00 0.00 42 1010.7
20260503175602 10 284 12.9 20.9 0.00 0.00 0.00 43 1010.7
20260503175102 9 286 9.7 19.3 0.00 0.00 0.00 43 1010.8
20260503174603 9 264 12.9 29.0 0.00 0.00 0.00 42 1010.6
20260503174103 10 283 11.3 20.9 0.00 0.00 0.00 43 1010.7
20260503173603 9 287 11.3 19.3 0.00 0.00 0.00 44 1010.7
20260503173103 9 324 4.8 19.3 0.00 0.00 0.00 45 1010.7
20260503172604 9 293 11.3 19.3 0.00 0.00 0.00 44 1010.8
20260503172103 9 285 14.5 27.4 0.00 0.00 0.00 44 1010.8
20260503171603 9 286 11.3 24.1 0.00 0.00 0.00 44 1010.8
20260503171103 9 298 12.9 24.1 0.00 0.00 0.00 44 1010.7
20260503170603 9 287 12.9 24.1 0.00 0.00 0.00 44 1010.7
20260503170103 9 286 9.7 19.3 0.00 0.00 0.00 43 1010.8
20260503150603 8 303 8.0 22.5 0.00 0.00 0.00 52 1011.0
20260503130603 6 283 4.8 9.7 0.00 0.00 0.00 73 1011.7
20260503110603 2 355 1.6 3.2 0.00 0.08 0.00 85 1011.2
20260503090104 1 355 0.0 0.0 0.00 0.13 0.00 83 1010.9
20260503081603 1 355 0.0 1.6 0.00 0.15 0.00 80 1011.3
20260503081104 1 355 0.0 1.6 0.00 0.15 0.00 80 1011.3
20260503080603 2 355 0.0 1.6 0.00 0.15 0.00 80 1011.4
20260503080104 2 355 0.0 1.6 0.00 0.18 0.00 79 1011.4
20260503072603 2 355 1.6 3.2 0.00 0.25 0.00 77 1011.3
20260503072104 2 355 1.6 3.2 0.00 0.28 0.00 76 1011.4
20260503071603 2 355 1.6 3.2 0.00 0.30 0.00 75 1011.5